NDF4200 EDDH-EPKK

Flight info

Callsign NDF4200
Flight time 1h 14m
Altitude 39000
Route AMLUH3B AMLUH L619 PITEN Z998 RATMO DCT POGAB DCT LASIS T714 MAPIK DCT
Aircraft A339/H-SADE1E2E3GHIJ3J5M1P2RWXY/LB2D1

Departure

Time 2026-04-24 13:45
Airport Hamburg Helmut Schmidt Airport (EDDH)

Arrival

Time 2026-04-24 15:00
Airport Kraków John Paul II International Airport (EPKK)
Time Latitude Longitude Altitude Speed Heading
2026-04-24 13:14 53.63419 10.00338 56 ft 0 kts 99°
2026-04-24 13:35 53.63422 10.00316 49 ft 4 kts 90°
2026-04-24 13:36 53.63420 10.00274 52 ft 4 kts 65°
2026-04-24 13:36 53.63410 10.00238 48 ft 2 kts 85°
2026-04-24 13:36 53.63406 10.00207 48 ft 4 kts 122°
2026-04-24 13:36 53.63412 10.00190 48 ft 4 kts 176°
2026-04-24 13:37 53.63433 10.00188 50 ft 1 kts 176°
2026-04-24 13:37 53.63417 10.00190 48 ft 0 kts 176°
2026-04-24 13:40 53.63410 10.00191 49 ft 2 kts 176°
2026-04-24 13:41 53.63384 10.00194 52 ft 5 kts 175°
2026-04-24 13:41 53.63340 10.00201 49 ft 8 kts 176°
2026-04-24 13:41 53.63279 10.00207 54 ft 10 kts 176°
2026-04-24 13:41 53.63204 10.00216 50 ft 12 kts 175°
2026-04-24 13:42 53.63116 10.00229 52 ft 13 kts 176°
2026-04-24 13:42 53.63030 10.00182 50 ft 14 kts 210°
2026-04-24 13:42 53.62948 10.00096 50 ft 11 kts 212°
2026-04-24 13:42 53.62880 10.00038 49 ft 10 kts 208°
2026-04-24 13:43 53.62839 9.99942 48 ft 11 kts 240°
2026-04-24 13:43 53.62811 9.99821 49 ft 10 kts 272°
2026-04-24 13:43 53.62850 9.99760 50 ft 0 kts 329°
2026-04-24 13:45 53.63022 9.99607 48 ft 66 kts 333°
2026-04-24 13:45 53.63652 9.99063 49 ft 132 kts 332°
2026-04-24 13:45 53.64633 9.98225 177 ft 180 kts 329°
2026-04-24 13:45 53.65826 9.97231 718 ft 203 kts 329°
2026-04-24 13:46 53.67110 9.96122 1406 ft 210 kts 329°
2026-04-24 13:46 53.68410 9.95077 2089 ft 206 kts 336°
2026-04-24 13:46 53.69816 9.94672 2806 ft 205 kts 356°
2026-04-24 13:46 53.71248 9.94763 3522 ft 207 kts
2026-04-24 13:47 53.72677 9.94988 4360 ft 207 kts 11°
2026-04-24 13:47 53.73972 9.96092 5205 ft 214 kts 37°
2026-04-24 13:47 53.74811 9.98214 6092 ft 226 kts 66°
2026-04-24 13:47 53.74915 10.00918 6897 ft 241 kts 95°
2026-04-24 13:48 53.74365 10.03650 7656 ft 251 kts 111°
2026-04-24 13:48 53.73458 10.06197 8334 ft 263 kts 119°
2026-04-24 13:48 53.72445 10.08912 8677 ft 284 kts 118°
2026-04-24 13:48 53.71395 10.11883 9009 ft 303 kts 117°
2026-04-24 13:49 53.70333 10.15000 9677 ft 309 kts 116°
2026-04-24 13:49 53.69247 10.18158 10379 ft 314 kts 121°
2026-04-24 13:49 53.67687 10.20900 10647 ft 338 kts 143°
2026-04-24 13:49 53.65497 10.22675 10865 ft 359 kts 163°
2026-04-24 13:50 53.63033 10.23667 11309 ft 367 kts 170°
2026-04-24 13:50 53.60518 10.24493 11976 ft 370 kts 169°
2026-04-24 13:50 53.57993 10.25409 12637 ft 373 kts 168°
2026-04-24 13:50 53.55494 10.26433 13286 ft 376 kts 166°
2026-04-24 13:51 53.52955 10.27553 13942 ft 379 kts 166°
2026-04-24 13:51 53.50397 10.28722 14540 ft 381 kts 166°
2026-04-24 13:51 53.47827 10.29909 15141 ft 384 kts 166°
2026-04-24 13:51 53.45262 10.31162 15702 ft 387 kts 161°
2026-04-24 13:52 53.42903 10.33354 16265 ft 390 kts 142°
2026-04-24 13:52 53.41010 10.36628 16830 ft 393 kts 125°
2026-04-24 13:52 53.39665 10.40612 17387 ft 395 kts 114°
2026-04-24 13:52 53.38536 10.44839 17919 ft 399 kts 112°
2026-04-24 13:53 53.37393 10.49098 18459 ft 403 kts 114°
2026-04-24 13:53 53.36172 10.53344 18952 ft 407 kts 116°
2026-04-24 13:53 53.34881 10.57587 19432 ft 410 kts 117°
2026-04-24 13:53 53.33548 10.61829 19914 ft 413 kts 117°
2026-04-24 13:54 53.32187 10.66098 20407 ft 417 kts 118°
2026-04-24 13:54 53.30810 10.70401 20911 ft 420 kts 118°
2026-04-24 13:54 53.29438 10.74682 21403 ft 424 kts 118°
2026-04-24 13:54 53.28039 10.79047 21886 ft 428 kts 118°
2026-04-24 13:55 53.26623 10.83458 22391 ft 431 kts 118°
2026-04-24 13:55 53.25194 10.87906 22882 ft 435 kts 118°
2026-04-24 13:55 53.23756 10.92372 23378 ft 439 kts 118°
2026-04-24 13:55 53.22320 10.96824 23874 ft 442 kts 118°
2026-04-24 13:56 53.20855 11.01357 24304 ft 445 kts 118°
2026-04-24 13:56 53.19382 11.05909 24756 ft 448 kts 118°
2026-04-24 13:56 53.17894 11.10495 25191 ft 451 kts 119°
2026-04-24 13:56 53.16393 11.15113 25619 ft 454 kts 119°
2026-04-24 13:57 53.14882 11.19753 26042 ft 457 kts 119°
2026-04-24 13:57 53.13357 11.24427 26470 ft 460 kts 119°
2026-04-24 13:57 53.11823 11.29119 26893 ft 463 kts 119°
2026-04-24 13:57 53.10273 11.33855 27299 ft 466 kts 119°
2026-04-24 13:58 53.08717 11.38608 27705 ft 469 kts 119°
2026-04-24 13:58 53.07159 11.43357 28103 ft 472 kts 119°
2026-04-24 13:58 53.05579 11.48164 28490 ft 475 kts 119°
2026-04-24 13:58 53.04030 11.53051 28853 ft 478 kts 115°
2026-04-24 13:59 53.02819 11.58232 29230 ft 481 kts 107°
2026-04-24 13:59 53.01938 11.63536 29580 ft 484 kts 104°
2026-04-24 13:59 53.01055 11.68942 29949 ft 487 kts 104°
2026-04-24 13:59 53.00147 11.74379 30298 ft 490 kts 105°
2026-04-24 14:00 52.98951 11.79693 30592 ft 493 kts 115°
2026-04-24 14:00 52.97318 11.84712 30911 ft 496 kts 123°
2026-04-24 14:00 52.95304 11.89352 31226 ft 497 kts 129°
2026-04-24 14:00 52.93180 11.93909 31529 ft 501 kts 129°
2026-04-24 14:01 52.91059 11.98502 31875 ft 503 kts 129°
2026-04-24 14:01 52.88933 12.03126 32171 ft 506 kts 129°
2026-04-24 14:01 52.86794 12.07776 32486 ft 509 kts 129°
2026-04-24 14:01 52.84642 12.12457 32767 ft 512 kts 129°
2026-04-24 14:02 52.82481 12.17155 32994 ft 514 kts 129°
2026-04-24 14:02 52.80314 12.21855 33226 ft 516 kts 129°
2026-04-24 14:02 52.78132 12.26579 33423 ft 518 kts 129°
2026-04-24 14:02 52.75940 12.31314 33598 ft 519 kts 129°
2026-04-24 14:03 52.73742 12.36053 33809 ft 520 kts 129°
2026-04-24 14:03 52.71534 12.40804 34044 ft 520 kts 129°
2026-04-24 14:03 52.69240 12.45411 34242 ft 518 kts 134°
2026-04-24 14:03 52.66838 12.49847 34454 ft 518 kts 133°
2026-04-24 14:04 52.64443 12.54285 34650 ft 518 kts 133°
2026-04-24 14:04 52.62055 12.58710 34863 ft 517 kts 133°
2026-04-24 14:04 52.59664 12.63140 35083 ft 517 kts 133°
2026-04-24 14:04 52.57274 12.67559 35297 ft 516 kts 133°
2026-04-24 14:05 52.54885 12.71968 35532 ft 516 kts 133°
2026-04-24 14:05 52.52500 12.76360 35744 ft 515 kts 133°
2026-04-24 14:05 52.50116 12.80744 35952 ft 515 kts 133°
2026-04-24 14:05 52.47726 12.85129 36150 ft 515 kts 133°
2026-04-24 14:06 52.45342 12.89497 36390 ft 514 kts 133°
2026-04-24 14:06 52.42986 12.93805 36578 ft 513 kts 133°
2026-04-24 14:06 52.40595 12.98169 36787 ft 513 kts 133°
2026-04-24 14:06 52.38209 13.02515 36993 ft 512 kts 133°
2026-04-24 14:07 52.35827 13.06848 37181 ft 512 kts 133°
2026-04-24 14:07 52.33443 13.11176 37394 ft 512 kts 133°
2026-04-24 14:07 52.31059 13.15498 37603 ft 511 kts 133°
2026-04-24 14:07 52.28679 13.19803 37807 ft 511 kts 133°
2026-04-24 14:08 52.26295 13.24109 37993 ft 510 kts 133°
2026-04-24 14:08 52.23914 13.28403 38189 ft 510 kts 133°
2026-04-24 14:08 52.21530 13.32694 38375 ft 510 kts 133°
2026-04-24 14:08 52.19151 13.36970 38565 ft 509 kts 133°
2026-04-24 14:09 52.16767 13.41246 38745 ft 509 kts 133°
2026-04-24 14:09 52.14414 13.45460 38912 ft 508 kts 133°
2026-04-24 14:09 52.12036 13.49711 39067 ft 508 kts 133°
2026-04-24 14:09 52.09659 13.53955 39103 ft 507 kts 133°
2026-04-24 14:10 52.04912 13.62407 39110 ft 506 kts 133°
2026-04-24 14:10 52.00149 13.70857 39107 ft 506 kts 133°
2026-04-24 14:11 51.95387 13.79278 39107 ft 506 kts 133°
2026-04-24 14:12 51.88240 13.91863 39111 ft 506 kts 133°
2026-04-24 14:12 51.83614 14.00348 39110 ft 506 kts 126°
2026-04-24 14:13 51.79537 14.09623 39108 ft 506 kts 124°
2026-04-24 14:13 51.76141 14.17355 39108 ft 506 kts 124°
2026-04-24 14:14 51.72045 14.26600 39110 ft 506 kts 125°
2026-04-24 14:14 51.65870 14.40448 39113 ft 506 kts 125°
2026-04-24 14:15 51.61752 14.49640 39114 ft 506 kts 125°
2026-04-24 14:15 51.57623 14.58826 39115 ft 506 kts 125°
2026-04-24 14:16 51.53520 14.67921 39108 ft 506 kts 125°
2026-04-24 14:17 51.47313 14.81622 39112 ft 506 kts 125°
2026-04-24 14:17 51.41222 14.95437 39109 ft 505 kts 118°
2026-04-24 14:18 51.38224 15.05549 39108 ft 502 kts 109°
2026-04-24 14:18 51.35592 15.15904 39108 ft 502 kts 110°
2026-04-24 14:19 51.32923 15.26222 39106 ft 502 kts 110°
2026-04-24 14:19 51.30238 15.36513 39108 ft 502 kts 110°
2026-04-24 14:20 51.27557 15.46745 39109 ft 502 kts 110°
2026-04-24 14:20 51.24850 15.57031 39108 ft 502 kts 110°
2026-04-24 14:21 51.22135 15.67302 39106 ft 502 kts 110°
2026-04-24 14:21 51.19414 15.77550 39102 ft 501 kts 110°
2026-04-24 14:22 51.16685 15.87781 39099 ft 501 kts 110°
2026-04-24 14:23 51.12714 16.03160 39094 ft 501 kts 109°
2026-04-24 14:23 51.10071 16.13414 39089 ft 500 kts 109°
2026-04-24 14:24 51.07411 16.23642 39087 ft 500 kts 109°
2026-04-24 14:24 51.04738 16.33861 39084 ft 500 kts 109°
2026-04-24 14:25 51.02074 16.44004 39006 ft 500 kts 109°
2026-04-24 14:25 51.00716 16.49159 38764 ft 500 kts 109°
2026-04-24 14:25 50.99386 16.54191 38483 ft 499 kts 109°
2026-04-24 14:25 50.98038 16.59284 38231 ft 500 kts 109°
2026-04-24 14:26 50.96686 16.64384 37945 ft 501 kts 109°
2026-04-24 14:26 50.95333 16.69475 37660 ft 501 kts 109°
2026-04-24 14:26 50.93977 16.74562 37395 ft 502 kts 109°
2026-04-24 14:26 50.92610 16.79677 37125 ft 503 kts 109°
2026-04-24 14:27 50.91246 16.84772 36862 ft 503 kts 109°
2026-04-24 14:27 50.89874 16.89886 36598 ft 504 kts 109°
2026-04-24 14:27 50.88501 16.94991 36341 ft 504 kts 109°
2026-04-24 14:27 50.87123 17.00105 36084 ft 505 kts 109°
2026-04-24 14:28 50.85743 17.05215 35825 ft 505 kts 109°
2026-04-24 14:28 50.84353 17.10351 35577 ft 506 kts 109°
2026-04-24 14:28 50.82981 17.15405 35340 ft 507 kts 109°
2026-04-24 14:28 50.81576 17.20517 35088 ft 507 kts 110°
2026-04-24 14:29 50.80161 17.25634 34840 ft 508 kts 110°
2026-04-24 14:29 50.78743 17.30749 34601 ft 509 kts 110°
2026-04-24 14:29 50.77323 17.35864 34355 ft 509 kts 110°
2026-04-24 14:29 50.75897 17.40994 34115 ft 510 kts 110°
2026-04-24 14:30 50.74952 17.44391 33949 ft 510 kts 110°
2026-04-24 14:30 50.73035 17.51270 33582 ft 510 kts 110°
2026-04-24 14:30 50.71600 17.56384 33313 ft 510 kts 110°
2026-04-24 14:30 50.70162 17.61479 32732 ft 510 kts 110°
2026-04-24 14:31 50.68712 17.66606 31808 ft 511 kts 111°
2026-04-24 14:31 50.67256 17.71749 30646 ft 515 kts 111°
2026-04-24 14:31 50.65813 17.76832 29610 ft 512 kts 111°
2026-04-24 14:31 50.64366 17.81913 28879 ft 504 kts 111°
2026-04-24 14:32 50.62944 17.86892 28429 ft 492 kts 111°
2026-04-24 14:32 50.61549 17.91771 27768 ft 486 kts 111°
2026-04-24 14:32 50.60184 17.96610 27106 ft 479 kts 109°
2026-04-24 14:32 50.59150 18.01547 26460 ft 471 kts 101°
2026-04-24 14:33 50.58556 18.06558 25825 ft 462 kts 93°
2026-04-24 14:33 50.58355 18.11556 25193 ft 455 kts 88°
2026-04-24 14:33 50.58238 18.16512 24517 ft 452 kts 89°
2026-04-24 14:33 50.58106 18.21413 23917 ft 446 kts 89°
2026-04-24 14:34 50.57965 18.26263 23286 ft 441 kts 89°
2026-04-24 14:34 50.57817 18.31054 22682 ft 434 kts 89°
2026-04-24 14:34 50.57669 18.35773 22082 ft 427 kts 89°
2026-04-24 14:34 50.57521 18.40412 21468 ft 421 kts 89°
2026-04-24 14:35 50.57375 18.44970 20880 ft 415 kts 89°
2026-04-24 14:35 50.57219 18.49426 20587 ft 416 kts 90°
2026-04-24 14:35 50.57050 18.54032 20366 ft 424 kts 90°
2026-04-24 14:35 50.56873 18.58652 20047 ft 420 kts 90°
2026-04-24 14:36 50.56697 18.63220 19740 ft 418 kts 90°
2026-04-24 14:36 50.56521 18.67782 19422 ft 417 kts 90°
2026-04-24 14:36 50.56358 18.72323 19130 ft 415 kts 88°
2026-04-24 14:36 50.56371 18.76836 18826 ft 412 kts 86°
2026-04-24 14:37 50.56400 18.81335 18536 ft 410 kts 86°
2026-04-24 14:37 50.56424 18.85823 18223 ft 409 kts 86°
2026-04-24 14:37 50.56444 18.90279 17945 ft 406 kts 86°
2026-04-24 14:37 50.56459 18.94651 17813 ft 394 kts 86°
2026-04-24 14:38 50.56470 18.98876 17659 ft 378 kts 86°
2026-04-24 14:38 50.56479 19.02916 17493 ft 361 kts 86°
2026-04-24 14:38 50.56486 19.06784 17290 ft 347 kts 86°
2026-04-24 14:38 50.56495 19.10545 16800 ft 342 kts 86°
2026-04-24 14:39 50.56503 19.14270 16313 ft 338 kts 87°
2026-04-24 14:39 50.56491 19.17914 16087 ft 329 kts 87°
2026-04-24 14:39 50.56471 19.21525 15845 ft 332 kts 88°
2026-04-24 14:39 50.56450 19.25147 15606 ft 331 kts 88°
2026-04-24 14:40 50.56428 19.28753 15365 ft 328 kts 88°
2026-04-24 14:40 50.56406 19.32322 15131 ft 326 kts 88°
2026-04-24 14:40 50.56385 19.35887 14893 ft 325 kts 88°
2026-04-24 14:40 50.56363 19.39431 14657 ft 324 kts 88°
2026-04-24 14:41 50.56337 19.42967 14424 ft 322 kts 88°
2026-04-24 14:41 50.56312 19.46500 14192 ft 321 kts 88°
2026-04-24 14:41 50.56287 19.49961 13955 ft 319 kts 89°
2026-04-24 14:41 50.56262 19.53450 13707 ft 319 kts 89°
2026-04-24 14:42 50.56242 19.55801 13548 ft 318 kts 89°
2026-04-24 14:42 50.56185 19.60398 13205 ft 316 kts 92°
2026-04-24 14:42 50.55615 19.63732 12937 ft 319 kts 115°
2026-04-24 14:42 50.54288 19.66506 12703 ft 320 kts 138°
2026-04-24 14:43 50.52416 19.68383 12391 ft 319 kts 155°
2026-04-24 14:43 50.50369 19.69707 12087 ft 317 kts 160°
2026-04-24 14:43 50.48347 19.70940 11772 ft 314 kts 159°
2026-04-24 14:43 50.46326 19.72282 11462 ft 315 kts 157°
2026-04-24 14:44 50.44340 19.73720 11142 ft 313 kts 155°
2026-04-24 14:44 50.42386 19.75212 10824 ft 312 kts 154°
2026-04-24 14:44 50.40438 19.76735 10534 ft 312 kts 154°
2026-04-24 14:44 50.38501 19.78259 10233 ft 311 kts 154°
2026-04-24 14:45 50.36571 19.79777 9920 ft 310 kts 154°
2026-04-24 14:45 50.34645 19.81288 9599 ft 308 kts 154°
2026-04-24 14:45 50.32736 19.82780 9286 ft 305 kts 154°
2026-04-24 14:45 50.30850 19.84251 9050 ft 301 kts 154°
2026-04-24 14:46 50.28969 19.85716 8957 ft 303 kts 154°
2026-04-24 14:46 50.27083 19.87190 8848 ft 302 kts 154°
2026-04-24 14:46 50.25206 19.88657 8729 ft 301 kts 154°
2026-04-24 14:46 50.23333 19.90120 8643 ft 301 kts 154°
2026-04-24 14:47 50.22093 19.91087 8574 ft 300 kts 154°
2026-04-24 14:47 50.19915 19.93736 8434 ft 299 kts 126°
2026-04-24 14:47 50.19030 19.96599 8328 ft 293 kts 102°
2026-04-24 14:47 50.18953 19.99616 8223 ft 268 kts 76°
2026-04-24 14:48 50.19477 20.02281 8128 ft 251 kts 65°
2026-04-24 14:48 50.20122 20.04839 8023 ft 254 kts 65°
2026-04-24 14:48 50.20692 20.07429 7799 ft 252 kts 69°
2026-04-24 14:48 50.21168 20.10091 7286 ft 256 kts 72°
2026-04-24 14:49 50.21570 20.12792 6851 ft 255 kts 74°
2026-04-24 14:49 50.21927 20.15446 6683 ft 246 kts 75°
2026-04-24 14:49 50.22277 20.18120 6546 ft 253 kts 75°
2026-04-24 14:49 50.22624 20.20791 6336 ft 249 kts 75°
2026-04-24 14:50 50.22970 20.23403 6206 ft 248 kts 75°
2026-04-24 14:50 50.23327 20.26062 6056 ft 251 kts 75°
2026-04-24 14:50 50.23544 20.28748 5901 ft 250 kts 91°
2026-04-24 14:50 50.23042 20.31346 5763 ft 255 kts 120°
2026-04-24 14:51 50.21835 20.33339 5622 ft 253 kts 149°
2026-04-24 14:51 50.20233 20.34244 5495 ft 248 kts 175°
2026-04-24 14:51 50.18516 20.34385 5346 ft 246 kts 183°
2026-04-24 14:51 50.16867 20.33907 5225 ft 240 kts 207°
2026-04-24 14:52 50.15553 20.32431 5086 ft 230 kts 233°
2026-04-24 14:52 50.14893 20.30211 4961 ft 227 kts 259°
2026-04-24 14:52 50.14604 20.27817 4818 ft 222 kts 264°
2026-04-24 14:52 50.14308 20.25435 4689 ft 225 kts 261°
2026-04-24 14:53 50.13971 20.23076 4613 ft 218 kts 261°
2026-04-24 14:53 50.13654 20.20816 4328 ft 210 kts 261°
2026-04-24 14:53 50.13348 20.18601 3951 ft 209 kts 261°
2026-04-24 14:53 50.13044 20.16417 3578 ft 209 kts 261°
2026-04-24 14:54 50.12739 20.14213 3200 ft 207 kts 261°
2026-04-24 14:54 50.12438 20.12071 3002 ft 192 kts 261°
2026-04-24 14:54 50.12172 20.10175 2995 ft 166 kts 262°
2026-04-24 14:54 50.11946 20.08558 2975 ft 141 kts 262°
2026-04-24 14:55 50.11808 20.07562 2998 ft 145 kts 262°
2026-04-24 14:55 50.11526 20.05528 2998 ft 143 kts 263°
2026-04-24 14:55 50.11318 20.03998 2997 ft 144 kts 262°
2026-04-24 14:55 50.11105 20.02493 2990 ft 139 kts 262°
2026-04-24 14:56 50.10901 20.01006 2999 ft 143 kts 262°
2026-04-24 14:56 50.10695 19.99517 2998 ft 144 kts 262°
2026-04-24 14:56 50.10482 19.97989 3001 ft 142 kts 262°
2026-04-24 14:56 50.10271 19.96469 2963 ft 147 kts 262°
2026-04-24 14:57 50.10059 19.94942 2765 ft 140 kts 262°
2026-04-24 14:57 50.09847 19.93415 2578 ft 145 kts 261°
2026-04-24 14:57 50.09636 19.91919 2405 ft 143 kts 262°
2026-04-24 14:57 50.09424 19.90385 2194 ft 140 kts 262°
2026-04-24 14:58 50.09223 19.88931 2009 ft 139 kts 261°
2026-04-24 14:58 50.09020 19.87436 1813 ft 140 kts 260°
2026-04-24 14:58 50.08811 19.85984 1595 ft 137 kts 260°
2026-04-24 14:58 50.08603 19.84496 1459 ft 142 kts 260°
2026-04-24 14:59 50.08395 19.83036 1201 ft 134 kts 261°
2026-04-24 14:59 50.08206 19.81627 1051 ft 140 kts 260°
2026-04-24 14:59 50.07988 19.80125 842 ft 141 kts 261°
2026-04-24 14:59 50.07801 19.78723 802 ft 120 kts 258°
2026-04-24 15:00 50.07706 19.78020 799 ft 81 kts 258°
2026-04-24 15:00 50.07621 19.77407 803 ft 48 kts 257°
2026-04-24 15:00 50.07567 19.77012 807 ft 19 kts 258°
2026-04-24 15:00 50.07509 19.76852 808 ft 16 kts 200°
2026-04-24 15:01 50.07391 19.76878 805 ft 19 kts 166°
2026-04-24 15:01 50.07372 19.76885 805 ft 0 kts 166°
2026-04-24 15:01 50.07371 19.76885 805 ft 1 kts 166°
2026-04-24 15:01 50.07346 19.76895 805 ft 5 kts 165°
2026-04-24 15:02 50.07316 19.76941 805 ft 7 kts 120°
2026-04-24 15:02 50.07318 19.77023 805 ft 9 kts 80°
2026-04-24 15:02 50.07336 19.77127 805 ft 11 kts 79°
2026-04-24 15:02 50.07353 19.77257 804 ft 14 kts 78°
2026-04-24 15:03 50.07374 19.77418 804 ft 16 kts 78°
2026-04-24 15:03 50.07399 19.77602 803 ft 18 kts 77°
2026-04-24 15:03 50.07430 19.77807 802 ft 20 kts 77°
2026-04-24 15:03 50.07458 19.78020 801 ft 19 kts 81°
2026-04-24 15:04 50.07480 19.78224 801 ft 19 kts 80°
2026-04-24 15:04 50.07504 19.78406 800 ft 15 kts 77°
2026-04-24 15:04 50.07529 19.78576 799 ft 17 kts 77°
2026-04-24 15:04 50.07557 19.78761 799 ft 17 kts 77°
2026-04-24 15:05 50.07584 19.78950 798 ft 19 kts 78°
2026-04-24 15:05 50.07609 19.79135 797 ft 9 kts 78°
2026-04-24 15:05 50.07623 19.79243 797 ft 12 kts 78°
2026-04-24 15:05 50.07631 19.79299 797 ft 1 kts 78°
2026-04-24 15:06 50.07635 19.79329 797 ft 4 kts 78°
2026-04-24 15:06 50.07643 19.79392 796 ft 7 kts 78°
2026-04-24 15:06 50.07656 19.79483 796 ft 10 kts 77°
2026-04-24 15:06 50.07674 19.79606 796 ft 13 kts 78°
2026-04-24 15:07 50.07696 19.79762 795 ft 16 kts 77°
2026-04-24 15:07 50.07719 19.79926 794 ft 15 kts 78°
2026-04-24 15:07 50.07689 19.79976 794 ft 5 kts 190°
2026-04-24 15:07 50.07651 19.79959 794 ft 7 kts 196°
2026-04-24 15:08 50.07596 19.79935 795 ft 10 kts 195°
2026-04-24 15:08 50.07524 19.79937 795 ft 11 kts 169°
2026-04-24 15:08 50.07439 19.79962 795 ft 13 kts 169°
2026-04-24 15:08 50.07401 19.80004 794 ft 4 kts 100°
2026-04-24 15:09 50.07413 19.80054 794 ft 6 kts 66°
2026-04-24 15:09 50.07396 19.80101 794 ft 4 kts 143°
2026-04-24 15:09 50.07360 19.80111 794 ft 6 kts 169°
2026-04-24 15:09 50.07344 19.80116 794 ft 2 kts 169°
2026-04-24 15:10 50.07325 19.80122 794 ft 0 kts 168°